Time,TemperatureF,DewpointF,PressureIn,WindDirection,WindDirectionDegrees,WindSpeedMPH,WindSpeedGustMPH,Humidity,HourlyPrecipIn,Conditions,Clouds,dailyrainin,SoftwareType,DateUTC
2015-03-06 00:01:00,40.6,36.0,30.34,WSW,257,0.0,0.0,82,0.00,,,0.00,weatherlink.com 1.10,2015-03-06 08:01:00,
2015-03-06 00:16:00,40.0,36.0,30.34,WSW,257,0.0,0.0,84,0.00,,,0.00,weatherlink.com 1.10,2015-03-06 08:16:00,
2015-03-06 00:31:00,39.6,36.0,30.34,WSW,257,0.0,0.0,85,0.00,,,0.00,weatherlink.com 1.10,2015-03-06 08:31:00,
2015-03-06 00:46:00,39.3,36.0,30.34,WSW,257,0.0,0.0,86,0.00,,,0.00,weatherlink.com 1.10,2015-03-06 08:46:00,
2015-03-06 01:01:00,39.2,36.0,30.34,WSW,257,0.0,1.0,87,0.00,,,0.00,weatherlink.com 1.10,2015-03-06 09:01:00,
2015-03-06 01:16:00,39.0,36.0,30.35,WSW,257,0.0,0.0,87,0.00,,,0.00,weatherlink.com 1.10,2015-03-06 09:16:00,
2015-03-06 01:31:00,39.0,36.0,30.35,WSW,257,0.0,0.0,89,0.00,,,0.00,weatherlink.com 1.10,2015-03-06 09:31:00,
2015-03-06 01:46:00,38.8,36.0,30.35,WSW,257,0.0,0.0,88,0.00,,,0.00,weatherlink.com 1.10,2015-03-06 09:46:00,
2015-03-06 02:01:00,38.6,35.0,30.35,WSW,257,0.0,0.0,88,0.00,,,0.00,weatherlink.com 1.10,2015-03-06 10:01:00,
2015-03-06 02:16:00,38.1,35.0,30.35,WSW,257,0.0,0.0,88,0.00,,,0.00,weatherlink.com 1.10,2015-03-06 10:16:00,
2015-03-06 02:31:00,37.7,35.0,30.35,WSW,257,0.0,0.0,88,0.00,,,0.00,weatherlink.com 1.10,2015-03-06 10:31:00,
2015-03-06 02:46:00,37.3,34.0,30.34,WSW,257,0.0,0.0,88,0.00,,,0.00,weatherlink.com 1.10,2015-03-06 10:46:00,
2015-03-06 03:01:00,36.8,34.0,30.34,WSW,257,0.0,0.0,89,0.00,,,0.00,weatherlink.com 1.10,2015-03-06 11:01:00,
2015-03-06 03:16:00,36.5,34.0,30.35,WSW,257,0.0,0.0,89,0.00,,,0.00,weatherlink.com 1.10,2015-03-06 11:16:00,
2015-03-06 03:32:00,36.2,34.0,30.35,WSW,257,0.0,0.0,90,0.00,,,0.00,weatherlink.com 1.10,2015-03-06 11:32:00,
2015-03-06 03:47:00,36.3,34.0,30.34,WSW,257,0.0,0.0,91,0.00,,,0.00,weatherlink.com 1.10,2015-03-06 11:47:00,
2015-03-06 04:02:00,36.1,34.0,30.35,WSW,257,0.0,0.0,91,0.00,,,0.00,weatherlink.com 1.10,2015-03-06 12:02:00,
2015-03-06 04:17:00,35.9,34.0,30.35,WSW,257,0.0,0.0,91,0.00,,,0.00,weatherlink.com 1.10,2015-03-06 12:17:00,
2015-03-06 04:32:00,36.0,34.0,30.35,WSW,257,0.0,2.0,92,0.00,,,0.00,weatherlink.com 1.10,2015-03-06 12:32:00,
2015-03-06 04:47:00,35.9,34.0,30.35,WSW,257,0.0,0.0,92,0.00,,,0.00,weatherlink.com 1.10,2015-03-06 12:47:00,
2015-03-06 05:02:00,35.9,34.0,30.35,WSW,256,0.0,0.0,93,0.00,,,0.00,weatherlink.com 1.10,2015-03-06 13:02:00,
2015-03-06 05:17:00,36.0,34.0,30.35,WSW,257,0.0,0.0,93,0.00,,,0.00,weatherlink.com 1.10,2015-03-06 13:17:00,
2015-03-06 05:32:00,36.1,34.0,30.35,WSW,257,0.0,0.0,93,0.00,,,0.00,weatherlink.com 1.10,2015-03-06 13:32:00,
2015-03-06 05:47:00,35.7,34.0,30.36,WSW,257,0.0,0.0,93,0.00,,,0.00,weatherlink.com 1.10,2015-03-06 13:47:00,
2015-03-06 06:02:00,35.1,33.0,30.36,WSW,257,0.0,0.0,92,0.00,,,0.00,weatherlink.com 1.10,2015-03-06 14:02:00,
2015-03-06 06:17:00,35.0,33.0,30.36,WSW,257,0.0,0.0,93,0.00,,,0.00,weatherlink.com 1.10,2015-03-06 14:17:00,
2015-03-06 06:32:00,35.1,33.0,30.36,WSW,257,0.0,0.0,93,0.00,,,0.00,weatherlink.com 1.10,2015-03-06 14:32:00,
2015-03-06 06:47:00,34.9,33.0,30.36,WSW,257,0.0,1.0,94,0.00,,,0.00,weatherlink.com 1.10,2015-03-06 14:47:00,
2015-03-06 07:02:00,34.6,33.0,30.36,WSW,257,0.0,0.0,93,0.00,,,0.00,weatherlink.com 1.10,2015-03-06 15:02:00,
2015-03-06 07:17:00,34.3,33.0,30.36,WSW,257,0.0,0.0,93,0.00,,,0.00,weatherlink.com 1.10,2015-03-06 15:17:00,
2015-03-06 07:32:00,34.4,33.0,30.37,WSW,257,0.0,0.0,94,0.00,,,0.00,weatherlink.com 1.10,2015-03-06 15:32:00,
2015-03-06 07:47:00,34.9,33.0,30.37,WSW,257,0.0,0.0,94,0.00,,,0.00,weatherlink.com 1.10,2015-03-06 15:47:00,
2015-03-06 08:02:00,36.5,35.0,30.38,WSW,257,0.0,0.0,95,0.00,,,0.00,weatherlink.com 1.10,2015-03-06 16:02:00,
2015-03-06 08:17:00,38.1,37.0,30.38,WSW,257,0.0,0.0,95,0.00,,,0.00,weatherlink.com 1.10,2015-03-06 16:17:00,
2015-03-06 08:32:00,40.9,39.0,30.38,WSW,257,0.0,0.0,94,0.00,,,0.00,weatherlink.com 1.10,2015-03-06 16:32:00,
2015-03-06 08:47:00,43.3,40.0,30.38,WSW,257,0.0,0.0,88,0.00,,,0.00,weatherlink.com 1.10,2015-03-06 16:47:00,
2015-03-06 09:02:00,45.4,41.0,30.39,WSW,257,0.0,0.0,83,0.00,,,0.00,weatherlink.com 1.10,2015-03-06 17:02:00,
2015-03-06 09:17:00,46.3,41.0,30.39,WSW,257,0.0,2.0,81,0.00,,,0.00,weatherlink.com 1.10,2015-03-06 17:17:00,
2015-03-06 09:32:00,47.8,42.0,30.39,WSW,257,0.0,2.0,80,0.00,,,0.00,weatherlink.com 1.10,2015-03-06 17:32:00,
2015-03-06 09:47:00,48.9,42.0,30.39,WSW,257,0.0,3.0,76,0.00,,,0.00,weatherlink.com 1.10,2015-03-06 17:47:00,
2015-03-06 10:02:00,50.4,42.0,30.39,WSW,257,0.0,4.0,73,0.00,,,0.00,weatherlink.com 1.10,2015-03-06 18:02:00,
2015-03-06 10:18:00,51.3,42.0,30.39,WSW,257,0.0,3.0,70,0.00,,,0.00,weatherlink.com 1.10,2015-03-06 18:18:00,
2015-03-06 10:33:00,52.1,42.0,30.38,WSW,256,1.0,4.0,69,0.00,,,0.00,weatherlink.com 1.10,2015-03-06 18:33:00,
2015-03-06 10:48:00,52.4,42.0,30.38,WSW,253,2.0,5.0,69,0.00,,,0.00,weatherlink.com 1.10,2015-03-06 18:48:00,
2015-03-06 11:03:00,54.0,43.0,30.38,WSW,255,0.0,3.0,67,0.00,,,0.00,weatherlink.com 1.10,2015-03-06 19:03:00,
2015-03-06 11:18:00,54.7,43.0,30.38,WSW,254,0.0,4.0,66,0.00,,,0.00,weatherlink.com 1.10,2015-03-06 19:18:00,
2015-03-06 11:33:00,55.9,44.0,30.37,WSW,255,0.0,3.0,64,0.00,,,0.00,weatherlink.com 1.10,2015-03-06 19:33:00,
2015-03-06 11:48:00,57.2,44.0,30.37,WSW,254,0.0,5.0,61,0.00,,,0.00,weatherlink.com 1.10,2015-03-06 19:48:00,
2015-03-06 12:03:00,58.4,44.0,30.37,West,260,0.0,5.0,59,0.00,,,0.00,weatherlink.com 1.10,2015-03-06 20:03:00,
2015-03-06 12:18:00,59.9,44.0,30.36,West,259,0.0,2.0,57,0.00,,,0.00,weatherlink.com 1.10,2015-03-06 20:18:00,
2015-03-06 12:33:00,60.6,44.0,30.36,West,259,0.0,4.0,55,0.00,,,0.00,weatherlink.com 1.10,2015-03-06 20:33:00,
2015-03-06 12:48:00,60.7,44.0,30.35,WSW,254,0.0,5.0,55,0.00,,,0.00,weatherlink.com 1.10,2015-03-06 20:48:00,
2015-03-06 13:03:00,61.8,44.0,30.34,WSW,255,0.0,4.0,52,0.00,,,0.00,weatherlink.com 1.10,2015-03-06 21:03:00,
2015-03-06 13:18:00,62.8,42.0,30.34,WSW,255,2.0,4.0,47,0.00,,,0.00,weatherlink.com 1.10,2015-03-06 21:18:00,
2015-03-06 13:33:00,63.4,42.0,30.33,WSW,252,0.0,4.0,46,0.00,,,0.00,weatherlink.com 1.10,2015-03-06 21:33:00,